[keps] orb08128.amsat

Ray Hoad r.hoad at att.net
Wed May 7 08:45:57 PDT 2008


SB KEPS @ AMSAT  $ORB08128.O
Orbital Elements  08128.OSCAR

HR AMSAT ORBITAL ELEMENTS FOR OSCAR SATELLITES
FROM WA5QGD FORT WORTH,TX May 7, 2008
Send Subscribe/unsubscribe to KEPS at 
http://www.amsat.org/mailman/listinfo/keps
BID: ORB08128.O
TO ALL RADIO AMATEURS BT

Satellite: AO-07
Catalog number: 07530
Epoch time:      08127.95384232
Element set:    0171
Inclination:      101.4689 deg
RA of node:       160.8246 deg
Eccentricity:    0.0011917
Arg of perigee:   343.8693 deg
Mean anomaly:     016.1991 deg
Mean motion:   12.53573789 rev/day
Decay rate:       -2.7e-07 rev/day^2
Epoch rev:           53181
Checksum:              312

Satellite: AO-10
Catalog number: 14129
Epoch time:      08126.50483301
Element set:     503
Inclination:      025.9362 deg
RA of node:       216.9437 deg
Eccentricity:    0.5999433
Arg of perigee:   121.1126 deg
Mean anomaly:     311.0439 deg
Mean motion:   02.05867746 rev/day
Decay rate:       1.98e-06 rev/day^2
Epoch rev:           18722
Checksum:              296

Satellite: UO-11
Catalog number: 14781
Epoch time:      08127.59642208
Element set:    0662
Inclination:      098.1570 deg
RA of node:       161.0023 deg
Eccentricity:    0.0008725
Arg of perigee:   201.0807 deg
Mean anomaly:     159.0070 deg
Mean motion:   14.79640251 rev/day
Decay rate:       3.04e-06 rev/day^2
Epoch rev:           29770
Checksum:              277

Satellite: RS-15
Catalog number: 23439
Epoch time:      08127.68341596
Element set:    0141
Inclination:      064.8166 deg
RA of node:       202.1607 deg
Eccentricity:    0.0148831
Arg of perigee:   130.8709 deg
Mean anomaly:     230.5219 deg
Mean motion:   11.27551801 rev/day
Decay rate:       -3.9e-07 rev/day^2
Epoch rev:           55028
Checksum:              292

Satellite: FO-29
Catalog number: 24278
Epoch time:      08127.92983011
Element set:    0770
Inclination:      098.5888 deg
RA of node:       049.6115 deg
Eccentricity:    0.0350482
Arg of perigee:   322.5271 deg
Mean anomaly:     035.1894 deg
Mean motion:   13.52936799 rev/day
Decay rate:      -1.20e-06 rev/day^2
Epoch rev:           57881
Checksum:              342

Satellite: SO-33
Catalog number: 25509
Epoch time:      08127.53098321
Element set:    0192
Inclination:      031.4307 deg
RA of node:       191.8808 deg
Eccentricity:    0.0354458
Arg of perigee:   022.9937 deg
Mean anomaly:     338.6165 deg
Mean motion:   14.28213913 rev/day
Decay rate:       2.10e-06 rev/day^2
Epoch rev:           49765
Checksum:              312

Satellite: AO-40
Catalog number: 26609
Epoch time:      08126.61303281
Element set:      52
Inclination:      007.5023 deg
RA of node:       084.0929 deg
Eccentricity:    0.7913593
Arg of perigee:   078.4912 deg
Mean anomaly:     352.4791 deg
Mean motion:   01.25580755 rev/day
Decay rate:       -7.4e-07 rev/day^2
Epoch rev:            3450
Checksum:              296

Satellite: VO-52
Catalog number: 28650
Epoch time:      08127.80035798
Element set:    0923
Inclination:      097.7908 deg
RA of node:       195.5409 deg
Eccentricity:    0.0025942
Arg of perigee:   275.8090 deg
Mean anomaly:     084.0168 deg
Mean motion:   14.81456883 rev/day
Decay rate:      -1.25e-06 rev/day^2
Epoch rev:           16247
Checksum:              340

Satellite: PO-63
Catalog number: 29712
Epoch time:      08128.25766293
Element set:     424
Inclination:      097.8773 deg
RA of node:       187.2084 deg
Eccentricity:    0.0014775
Arg of perigee:   149.8384 deg
Mean anomaly:     210.3678 deg
Mean motion:   14.80137178 rev/day
Decay rate:       6.78e-06 rev/day^2
Epoch rev:            7141
Checksum:              342

/EX
SB KEPS @ AMSAT  $ORB08128.D
Orbital Elements  08128.MICROS

HR AMSAT ORBITAL ELEMENTS FOR THE MICROSATS
FROM WA5QGD FORT WORTH,TX May 7, 2008
Send Subscribe/unsubscribe to KEPS at 
http://www.amsat.org/mailman/listinfo/keps
BID: ORB08128.D
TO ALL RADIO AMATEURS BT

Satellite: AO-16
Catalog number: 20439
Epoch time:      08127.56042894
Element set:    0314
Inclination:      098.2278 deg
RA of node:       109.7572 deg
Eccentricity:    0.0010284
Arg of perigee:   305.6989 deg
Mean anomaly:     054.3230 deg
Mean motion:   14.31792579 rev/day
Decay rate:        2.4e-07 rev/day^2
Epoch rev:           95496
Checksum:              326

Satellite: LO-19
Catalog number: 20442
Epoch time:      08127.89412685
Element set:    0241
Inclination:      098.1995 deg
RA of node:       118.7340 deg
Eccentricity:    0.0011123
Arg of perigee:   301.2435 deg
Mean anomaly:     058.7657 deg
Mean motion:   14.32031366 rev/day
Decay rate:        7.7e-07 rev/day^2
Epoch rev:           95516
Checksum:              299

Satellite: AO-27
Catalog number: 22825
Epoch time:      08127.61630396
Element set:    0963
Inclination:      098.3815 deg
RA of node:       089.2047 deg
Eccentricity:    0.0008876
Arg of perigee:   029.7879 deg
Mean anomaly:     330.3804 deg
Mean motion:   14.29238208 rev/day
Decay rate:        6.0e-07 rev/day^2
Epoch rev:           76183
Checksum:              335

Satellite: IO-26
Catalog number: 22826
Epoch time:      08128.44752014
Element set:     667
Inclination:      098.3736 deg
RA of node:       090.9322 deg
Eccentricity:    0.0009547
Arg of perigee:   023.0564 deg
Mean anomaly:     337.1043 deg
Mean motion:   14.29486431 rev/day
Decay rate:       -7.0e-08 rev/day^2
Epoch rev:           76204
Checksum:              301

Satellite: PO-28
Catalog number: 22829
Epoch time:      08127.47452566
Element set:     937
Inclination:      098.3612 deg
RA of node:       091.1082 deg
Eccentricity:    0.0010057
Arg of perigee:   359.0921 deg
Mean anomaly:     001.0248 deg
Mean motion:   14.30188341 rev/day
Decay rate:        5.5e-07 rev/day^2
Epoch rev:           76216
Checksum:              292

Satellite: GO-32
Catalog number: 25397
Epoch time:      08127.76997882
Element set:     592
Inclination:      098.3666 deg
RA of node:       164.9710 deg
Eccentricity:    0.0001596
Arg of perigee:   038.4904 deg
Mean anomaly:     321.6386 deg
Mean motion:   14.23143431 rev/day
Decay rate:       1.31e-06 rev/day^2
Epoch rev:           51032
Checksum:              317

Satellite: MO-46
Catalog number: 26548
Epoch time:      08127.63489092
Element set:      90
Inclination:      064.5576 deg
RA of node:       258.8481 deg
Eccentricity:    0.0025348
Arg of perigee:   330.0304 deg
Mean anomaly:     029.9330 deg
Mean motion:   14.83256815 rev/day
Decay rate:        1.7e-07 rev/day^2
Epoch rev:           41165
Checksum:              312

Satellite: NO-44
Catalog number: 26931
Epoch time:      08127.79690555
Element set:    0872
Inclination:      067.0552 deg
RA of node:       031.2830 deg
Eccentricity:    0.0006124
Arg of perigee:   278.6872 deg
Mean anomaly:     081.3514 deg
Mean motion:   14.29522163 rev/day
Decay rate:        4.7e-07 rev/day^2
Epoch rev:           34449
Checksum:              308

Satellite: SO-50
Catalog number: 27607
Epoch time:      08128.49748774
Element set:     596
Inclination:      064.5587 deg
RA of node:       177.2134 deg
Eccentricity:    0.0084411
Arg of perigee:   287.2392 deg
Mean anomaly:     071.9472 deg
Mean motion:   14.71352233 rev/day
Decay rate:        4.8e-07 rev/day^2
Epoch rev:           28898
Checksum:              346

Satellite: CO-55
Catalog number: 27844
Epoch time:      08127.74012880
Element set:    0299
Inclination:      098.7161 deg
RA of node:       136.5828 deg
Eccentricity:    0.0008946
Arg of perigee:   233.4762 deg
Mean anomaly:     126.5573 deg
Mean motion:   14.20577270 rev/day
Decay rate:        5.3e-07 rev/day^2
Epoch rev:           25155
Checksum:              323

Satellite: CO-57
Catalog number: 27848
Epoch time:      08128.01441475
Element set:     250
Inclination:      098.7163 deg
RA of node:       135.9566 deg
Eccentricity:    0.0008928
Arg of perigee:   238.4055 deg
Mean anomaly:     121.6247 deg
Mean motion:   14.20386239 rev/day
Decay rate:        3.2e-07 rev/day^2
Epoch rev:           25156
Checksum:              312

Satellite: AO-51
Catalog number: 28375
Epoch time:      08127.58348568
Element set:    0093
Inclination:      098.0746 deg
RA of node:       154.4884 deg
Eccentricity:    0.0083425
Arg of perigee:   279.7448 deg
Mean anomaly:     079.4332 deg
Mean motion:   14.40606030 rev/day
Decay rate:        1.5e-07 rev/day^2
Epoch rev:           20241
Checksum:              317

Satellite: CO-56
Catalog number: 28941
Epoch time:      08128.36747961
Element set:      32
Inclination:      098.1059 deg
RA of node:       233.5557 deg
Eccentricity:    0.0173428
Arg of perigee:   189.0165 deg
Mean anomaly:     170.8006 deg
Mean motion:   15.54786064 rev/day
Decay rate:     3.7670e-04 rev/day^2
Epoch rev:           12369
Checksum:              339

Satellite: CP4
Catalog number: 31122
Epoch time:      08127.69803382
Element set:     330
Inclination:      098.0458 deg
RA of node:       194.8269 deg
Eccentricity:    0.0087045
Arg of perigee:   097.8210 deg
Mean anomaly:     263.2858 deg
Mean motion:   14.55121404 rev/day
Decay rate:       5.53e-06 rev/day^2
Epoch rev:            5604
Checksum:              298

Satellite: CP3
Catalog number: 31128
Epoch time:      08127.71148785
Element set:    0325
Inclination:      098.0426 deg
RA of node:       192.8995 deg
Eccentricity:    0.0104338
Arg of perigee:   103.1063 deg
Mean anomaly:     258.1820 deg
Mean motion:   14.51942273 rev/day
Decay rate:       -4.6e-07 rev/day^2
Epoch rev:           05591
Checksum:              297

